| time (UTC) | temp F | wind direction | speed MPH | gust MPH | rain 1hr in | rain 24hr in | rain mn in | humidity % | barometer mb |
| 20260904090019 | 85 | 57 | 7.0 | 15.0 | 0.00 | 0.00 | 0.00 | 47 | 1016.0 |
| 20260904085046 | 84 | 19 | 8.0 | 17.0 | 0.00 | 0.00 | 0.00 | 50 | 1016.0 |
| 20260904084018 | 84 | 11 | 13.0 | 28.0 | 0.00 | 0.00 | 0.00 | 50 | 1016.0 |
| 20260904083027 | 84 | 22 | 6.0 | 15.0 | 0.00 | 0.00 | 0.00 | 51 | 1016.0 |
| 20260904082039 | 85 | 9 | 9.0 | 20.0 | 0.00 | 0.00 | 0.00 | 52 | 1016.0 |
| 20260904081027 | 85 | 24 | 6.0 | 20.0 | 0.00 | 0.00 | 0.00 | 50 | 1015.9 |
| 20260904080018 | 85 | 91 | 5.0 | 20.0 | 0.00 | 0.00 | 0.00 | 49 | 1015.7 |
| 20260904075026 | 84 | 18 | 7.0 | 15.0 | 0.00 | 0.00 | 0.00 | 50 | 1015.7 |
| 20260904074018 | 84 | 7 | 6.0 | 17.0 | 0.00 | 0.00 | 0.00 | 50 | 1015.7 |
| 20260904073026 | 84 | 61 | 6.0 | 17.0 | 0.00 | 0.00 | 0.00 | 50 | 1015.7 |
| 20260904072019 | 83 | 14 | 6.0 | 15.0 | 0.00 | 0.00 | 0.00 | 50 | 1015.7 |
| 20260904071027 | 83 | 7 | 10.0 | 23.0 | 0.00 | 0.00 | 0.00 | 50 | 1015.6 |
| 20260904070038 | 83 | 8 | 7.0 | 15.0 | 0.00 | 0.00 | 0.00 | 49 | 1015.4 |
| 20260904065046 | 83 | 18 | 9.0 | 17.0 | 0.00 | 0.00 | 0.00 | 49 | 1015.2 |
| 20260904064019 | 83 | 25 | 9.0 | 23.0 | 0.00 | 0.00 | 0.00 | 48 | 1015.1 |
| 20260904063027 | 83 | 16 | 7.0 | 15.0 | 0.00 | 0.00 | 0.00 | 49 | 1015.0 |
| 20260904062039 | 83 | 49 | 3.0 | 10.0 | 0.00 | 0.00 | 0.00 | 49 | 1014.9 |
| 20260904061026 | 82 | 11 | 8.0 | 17.0 | 0.00 | 0.00 | 0.00 | 49 | 1015.0 |
| 20260904060038 | 82 | 12 | 6.0 | 15.0 | 0.00 | 0.00 | 0.00 | 49 | 1015.0 |
| 20260904055026 | 82 | 13 | 4.0 | 17.0 | 0.00 | 0.00 | 0.00 | 48 | 1015.1 |
| 20260904054019 | 82 | 359 | 1.0 | 5.0 | 0.00 | 0.00 | 0.00 | 48 | 1015.1 |
| 20260904053026 | 82 | 335 | 0.0 | 5.0 | 0.00 | 0.00 | 0.00 | 50 | 1015.0 |
| 20260904052039 | 81 | 148 | 1.0 | 8.0 | 0.00 | 0.00 | 0.00 | 51 | 1014.8 |
| 20260904051026 | 80 | 0.0 | 0.0 | 0.00 | 0.00 | 0.00 | 52 | 1014.7 | |
| 20260904050018 | 78 | 0.0 | 0.0 | 0.00 | 0.00 | 0.00 | 55 | 1015.0 | |
| 20260904045026 | 77 | 0.0 | 0.0 | 0.00 | 0.00 | 0.00 | 56 | 1014.8 | |
| 20260904044038 | 76 | 0.0 | 0.0 | 0.00 | 0.00 | 0.00 | 58 | 1014.9 | |
| 20260904043027 | 76 | 0.0 | 0.0 | 0.00 | 0.00 | 0.00 | 59 | 1014.8 | |
| 20260904042038 | 76 | 214 | 1.0 | 5.0 | 0.00 | 0.00 | 0.00 | 58 | 1014.9 |
| 20260904041026 | 76 | 175 | 1.0 | 5.0 | 0.00 | 0.00 | 0.00 | 58 | 1014.6 |
| 20260904040018 | 76 | 0.0 | 0.0 | 0.00 | 0.00 | 0.00 | 57 | 1014.6 | |
| 20260904035026 | 77 | 0.0 | 0.0 | 0.00 | 0.00 | 0.00 | 56 | 1014.6 | |
| 20260904034018 | 77 | 0.0 | 0.0 | 0.00 | 0.00 | 0.00 | 55 | 1014.6 | |
| 20260904033047 | 77 | 0.0 | 0.0 | 0.00 | 0.00 | 0.00 | 55 | 1014.6 | |
| 20260904032018 | 77 | 133 | 2.0 | 8.0 | 0.00 | 0.00 | 0.00 | 54 | 1014.6 |
| 20260904031026 | 76 | 0.0 | 0.0 | 0.00 | 0.00 | 0.00 | 55 | 1014.6 | |
| 20260904030018 | 76 | 134 | 1.0 | 5.0 | 0.00 | 0.00 | 0.00 | 54 | 1014.6 |
| 20260904025026 | 76 | 0.0 | 0.0 | 0.00 | 0.00 | 0.00 | 55 | 1014.6 | |
| 20260904024038 | 76 | 0.0 | 0.0 | 0.00 | 0.00 | 0.00 | 56 | 1014.6 | |
| 20260904023026 | 76 | 0.0 | 0.0 | 0.00 | 0.00 | 0.00 | 56 | 1014.7 | |
| 20260904022018 | 76 | 0.0 | 0.0 | 0.00 | 0.00 | 0.00 | 56 | 1014.6 | |
| 20260904021026 | 76 | 0.0 | 0.0 | 0.00 | 0.00 | 0.00 | 56 | 1014.7 | |
| 20260904020018 | 76 | 0.0 | 0.0 | 0.00 | 0.00 | 0.00 | 55 | 1014.7 | |
| 20260904015046 | 76 | 0.0 | 0.0 | 0.00 | 0.00 | 0.00 | 55 | 1014.7 | |
| 20260904014018 | 76 | 0.0 | 0.0 | 0.00 | 0.00 | 0.00 | 54 | 1014.7 | |
| 20260904013026 | 77 | 0.0 | 0.0 | 0.00 | 0.00 | 0.00 | 53 | 1014.7 | |
| 20260904012018 | 77 | 0.0 | 0.0 | 0.00 | 0.00 | 0.00 | 53 | 1014.7 | |
| 20260904011026 | 77 | 173 | 1.0 | 5.0 | 0.00 | 0.00 | 0.00 | 53 | 1014.6 |
| 20260904010018 | 77 | 172 | 0.0 | 2.0 | 0.00 | 0.00 | 0.00 | 53 | 1014.6 |
| 20260904005026 | 77 | 133 | 0.0 | 2.0 | 0.00 | 0.00 | 0.00 | 53 | 1014.5 |
| 20260904004040 | 77 | 0.0 | 0.0 | 0.00 | 0.00 | 0.00 | 53 | 1014.4 | |
| 20260904003026 | 78 | 141 | 0.0 | 2.0 | 0.00 | 0.00 | 0.00 | 52 | 1014.4 |
| 20260904002018 | 78 | 0.0 | 0.0 | 0.00 | 0.00 | 0.00 | 51 | 1014.6 | |
| 20260904001026 | 78 | 0.0 | 0.0 | 0.00 | 0.00 | 0.00 | 51 | 1014.7 | |
| 20260904000018 | 78 | 120 | 0.0 | 5.0 | 0.00 | 0.00 | 0.00 | 50 | 1014.6 |
| 20260903235046 | 78 | 134 | 0.0 | 5.0 | 0.00 | 0.00 | 0.00 | 50 | 1014.7 |
| 20260903234018 | 78 | 0.0 | 0.0 | 0.00 | 0.00 | 0.00 | 50 | 1014.6 | |
| 20260903233026 | 78 | 126 | 0.0 | 2.0 | 0.00 | 0.00 | 0.00 | 48 | 1014.6 |
| 20260903232018 | 78 | 0.0 | 0.0 | 0.00 | 0.00 | 0.00 | 47 | 1014.6 | |
| 20260903231046 | 78 | 0.0 | 0.0 | 0.00 | 0.00 | 0.00 | 46 | 1014.7 | |
| 20260903230038 | 78 | 0.0 | 0.0 | 0.00 | 0.00 | 0.00 | 45 | 1014.6 | |
| 20260903225026 | 78 | 121 | 2.0 | 8.0 | 0.00 | 0.00 | 0.00 | 44 | 1014.7 |
| 20260903224018 | 78 | 120 | 0.0 | 2.0 | 0.00 | 0.00 | 0.00 | 44 | 1014.6 |
| 20260903223027 | 78 | 0.0 | 0.0 | 0.00 | 0.00 | 0.00 | 44 | 1014.7 | |
| 20260903222018 | 78 | 0.0 | 0.0 | 0.00 | 0.00 | 0.00 | 45 | 1014.7 | |
| 20260903221026 | 79 | 0.0 | 0.0 | 0.00 | 0.00 | 0.00 | 45 | 1014.7 | |
| 20260903220018 | 79 | 27 | 0.0 | 2.0 | 0.00 | 0.00 | 0.00 | 44 | 1014.7 |
| 20260903215030 | 79 | 0.0 | 0.0 | 0.00 | 0.00 | 0.00 | 44 | 1014.7 | |
| 20260903214040 | 79 | 0.0 | 0.0 | 0.00 | 0.00 | 0.00 | 43 | 1014.6 | |
| 20260903213028 | 79 | 0.0 | 0.0 | 0.00 | 0.00 | 0.00 | 44 | 1014.5 | |
| 20260903212020 | 79 | 0.0 | 0.0 | 0.00 | 0.00 | 0.00 | 43 | 1014.7 | |
| 20260903211028 | 79 | 0.0 | 0.0 | 0.00 | 0.00 | 0.00 | 44 | 1014.5 | |
| 20260903210040 | 80 | 0.0 | 0.0 | 0.00 | 0.00 | 0.00 | 43 | 1014.6 | |
| 20260903205028 | 80 | 0.0 | 0.0 | 0.00 | 0.00 | 0.00 | 43 | 1014.6 | |
| 20260903204040 | 80 | 0.0 | 0.0 | 0.00 | 0.00 | 0.00 | 43 | 1014.5 | |
| 20260903203028 | 80 | 0.0 | 0.0 | 0.00 | 0.00 | 0.00 | 42 | 1014.5 | |
| 20260903202020 | 81 | 0.0 | 0.0 | 0.00 | 0.00 | 0.00 | 42 | 1014.7 | |
| 20260903201030 | 81 | 49 | 0.0 | 2.0 | 0.00 | 0.00 | 0.00 | 42 | 1014.7 |
| 20260903200020 | 81 | 75 | 0.0 | 2.0 | 0.00 | 0.00 | 0.00 | 42 | 1014.7 |
| 20260903195048 | 81 | 22 | 0.0 | 2.0 | 0.00 | 0.00 | 0.00 | 41 | 1014.7 |
| 20260903194020 | 81 | 7 | 1.0 | 8.0 | 0.00 | 0.00 | 0.00 | 41 | 1014.6 |
| 20260903193028 | 81 | 91 | 1.0 | 5.0 | 0.00 | 0.00 | 0.00 | 41 | 1014.6 |
| 20260903192040 | 81 | 89 | 2.0 | 8.0 | 0.00 | 0.00 | 0.00 | 41 | 1014.6 |
| 20260903191028 | 82 | 38 | 2.0 | 8.0 | 0.00 | 0.00 | 0.00 | 41 | 1014.6 |
| 20260903190020 | 82 | 144 | 0.0 | 2.0 | 0.00 | 0.00 | 0.00 | 42 | 1014.4 |
| 20260903185048 | 82 | 97 | 2.0 | 10.0 | 0.00 | 0.00 | 0.00 | 42 | 1014.3 |
| 20260903184020 | 82 | 130 | 2.0 | 10.0 | 0.00 | 0.00 | 0.00 | 43 | 1014.2 |
| 20260903183030 | 82 | 141 | 3.0 | 8.0 | 0.00 | 0.00 | 0.00 | 43 | 1013.9 |
| 20260903182020 | 83 | 117 | 2.0 | 8.0 | 0.00 | 0.00 | 0.00 | 43 | 1014.0 |
| 20260903181028 | 83 | 126 | 2.0 | 8.0 | 0.00 | 0.00 | 0.00 | 42 | 1014.0 |
| 20260903180020 | 83 | 117 | 4.0 | 10.0 | 0.00 | 0.00 | 0.00 | 42 | 1013.9 |
| 20260903175028 | 83 | 125 | 2.0 | 8.0 | 0.00 | 0.00 | 0.00 | 42 | 1013.9 |
| 20260903174020 | 83 | 359 | 1.0 | 5.0 | 0.00 | 0.00 | 0.00 | 42 | 1013.9 |
| 20260903173028 | 83 | 14 | 4.0 | 10.0 | 0.00 | 0.00 | 0.00 | 42 | 1013.9 |
| 20260903172020 | 84 | 16 | 4.0 | 15.0 | 0.00 | 0.00 | 0.00 | 42 | 1013.8 |
| 20260903171028 | 84 | 9 | 3.0 | 15.0 | 0.00 | 0.00 | 0.00 | 42 | 1013.7 |
| 20260903170020 | 84 | 20 | 4.0 | 10.0 | 0.00 | 0.00 | 0.00 | 42 | 1013.6 |
| 20260903165030 | 84 | 20 | 4.0 | 13.0 | 0.00 | 0.00 | 0.00 | 42 | 1013.5 |
| 20260903164020 | 85 | 7 | 7.0 | 15.0 | 0.00 | 0.00 | 0.00 | 42 | 1013.5 |
| 20260903163048 | 85 | 70 | 4.0 | 13.0 | 0.00 | 0.00 | 0.00 | 42 | 1013.3 |
| 20260903162019 | 85 | 359 | 6.0 | 23.0 | 0.00 | 0.00 | 0.00 | 41 | 1013.3 |
| 20260903161028 | 86 | 45 | 4.0 | 15.0 | 0.00 | 0.00 | 0.00 | 41 | 1013.3 |
| 20260903160020 | 86 | 36 | 7.0 | 23.0 | 0.00 | 0.00 | 0.00 | 41 | 1013.2 |
| 20260903155028 | 87 | 137 | 7.0 | 17.0 | 0.00 | 0.00 | 0.00 | 40 | 1013.1 |
| 20260903154020 | 87 | 130 | 5.0 | 15.0 | 0.00 | 0.00 | 0.00 | 40 | 1013.0 |
| 20260903153027 | 87 | 119 | 5.0 | 13.0 | 0.00 | 0.00 | 0.00 | 39 | 1013.1 |
| 20260903152020 | 87 | 111 | 5.0 | 17.0 | 0.00 | 0.00 | 0.00 | 40 | 1013.3 |
| 20260903151028 | 87 | 133 | 4.0 | 15.0 | 0.00 | 0.00 | 0.00 | 41 | 1013.2 |
| 20260903150040 | 87 | 120 | 6.0 | 15.0 | 0.00 | 0.00 | 0.00 | 42 | 1013.4 |
| 20260903145028 | 88 | 124 | 6.0 | 15.0 | 0.00 | 0.00 | 0.00 | 42 | 1013.4 |
| 20260903144040 | 88 | 135 | 7.0 | 15.0 | 0.00 | 0.00 | 0.00 | 43 | 1013.3 |
| 20260903143027 | 89 | 90 | 5.0 | 15.0 | 0.00 | 0.00 | 0.00 | 44 | 1013.3 |
| 20260903142020 | 90 | 112 | 5.0 | 15.0 | 0.00 | 0.00 | 0.00 | 42 | 1013.5 |
| 20260903141027 | 90 | 118 | 5.0 | 13.0 | 0.00 | 0.00 | 0.00 | 42 | 1013.6 |
| 20260903140019 | 90 | 97 | 5.0 | 15.0 | 0.00 | 0.00 | 0.00 | 41 | 1013.3 |
| 20260903135048 | 90 | 81 | 7.0 | 15.0 | 0.00 | 0.00 | 0.00 | 41 | 1013.1 |
| 20260903134019 | 90 | 127 | 7.0 | 17.0 | 0.00 | 0.00 | 0.00 | 40 | 1013.1 |
| 20260903132020 | 91 | 131 | 6.0 | 17.0 | 0.00 | 0.00 | 0.00 | 39 | 1013.2 |
| 20260903131027 | 91 | 129 | 6.0 | 17.0 | 0.00 | 0.00 | 0.00 | 39 | 1013.4 |
| 20260903130019 | 91 | 122 | 6.0 | 13.0 | 0.00 | 0.00 | 0.00 | 40 | 1013.6 |
| 20260903125028 | 91 | 3 | 5.0 | 17.0 | 0.00 | 0.00 | 0.00 | 39 | 1013.4 |
| 20260903124019 | 91 | 126 | 5.0 | 17.0 | 0.00 | 0.00 | 0.00 | 39 | 1013.6 |
| 20260903123028 | 91 | 79 | 5.0 | 15.0 | 0.00 | 0.00 | 0.00 | 39 | 1013.6 |
| 20260903122020 | 90 | 129 | 6.0 | 17.0 | 0.00 | 0.00 | 0.00 | 40 | 1013.6 |
| 20260903121027 | 90 | 118 | 6.0 | 20.0 | 0.00 | 0.00 | 0.00 | 40 | 1013.7 |
| 20260903120039 | 90 | 117 | 9.0 | 20.0 | 0.00 | 0.00 | 0.00 | 41 | 1014.0 |
| 20260903115048 | 90 | 97 | 6.0 | 15.0 | 0.00 | 0.00 | 0.00 | 41 | 1014.0 |
| 20260903114020 | 90 | 117 | 5.0 | 15.0 | 0.00 | 0.00 | 0.00 | 41 | 1014.0 |
| 20260903113047 | 90 | 99 | 5.0 | 15.0 | 0.00 | 0.00 | 0.00 | 41 | 1014.0 |
| 20260903112020 | 90 | 128 | 7.0 | 17.0 | 0.00 | 0.00 | 0.00 | 42 | 1014.0 |
| 20260903111029 | 90 | 124 | 4.0 | 15.0 | 0.00 | 0.00 | 0.00 | 41 | 1014.0 |
| 20260903110020 | 90 | 129 | 6.0 | 15.0 | 0.00 | 0.00 | 0.00 | 43 | 1014.1 |
| 20260903105027 | 90 | 127 | 5.0 | 13.0 | 0.00 | 0.00 | 0.00 | 42 | 1014.1 |
| 20260903104019 | 90 | 103 | 6.0 | 15.0 | 0.00 | 0.00 | 0.00 | 42 | 1014.1 |
| 20260903103027 | 90 | 118 | 7.0 | 17.0 | 0.00 | 0.00 | 0.00 | 43 | 1014.1 |
| 20260903102019 | 91 | 33 | 8.0 | 17.0 | 0.00 | 0.00 | 0.00 | 42 | 1014.1 |
| 20260903101027 | 91 | 82 | 4.0 | 10.0 | 0.00 | 0.00 | 0.00 | 41 | 1014.1 |
| 20260903100039 | 91 | 131 | 5.0 | 13.0 | 0.00 | 0.00 | 0.00 | 41 | 1014.1 |
| 20260903095027 | 90 | 73 | 4.0 | 15.0 | 0.00 | 0.00 | 0.00 | 41 | 1014.2 |
| 20260903094019 | 90 | 114 | 5.0 | 15.0 | 0.00 | 0.00 | 0.00 | 40 | 1014.3 |
| 20260903093027 | 89 | 131 | 4.0 | 13.0 | 0.00 | 0.00 | 0.00 | 41 | 1014.5 |
| 20260903092019 | 89 | 57 | 5.0 | 15.0 | 0.00 | 0.00 | 0.00 | 41 | 1014.5 |
| 20260903091028 | 89 | 69 | 8.0 | 20.0 | 0.00 | 0.00 | 0.00 | 42 | 1014.6 |